sat.trackr.live / text

‹ back to catalog

STARLINK-5051

NORAD 53916 · 2022-119AG

PAYLOAD ACTIVE UNKNOWN

§ Identity

Operator
Country
US
Launch date
2022-09-24
Launch site
AFETR
Launch vehicle
Mass (kg)
RCS (m²)

Purposes: comms

External: N2YO · Heavens-Above · Gunter

§ Orbital elements

Epoch: 2026-05-25T03:34:15.301344Z

Period
95.44 min
Inclination
53.2140°
Eccentricity
0.0001332
Mean motion
15.08834727 rev/d
Perigee alt
538.8 km
Apogee alt
540.7 km
Semi-major
6,917.9 km
B*
-6.6809e-6
RAAN
310.5344°
Arg perigee
92.7393°
Mean anomaly
267.3752°
Rev number
20,366

§ Raw data

STARLINK-50511 53916U 22119AG  26145.14878821 -.00000394  00000+0 -66809-5 0  99972 53916  53.2140 310.5344 0001332  92.7393 267.3752 15.08834727203667

JSON: /api/v1/satellites/53916 · /tle

For live sub-satellite position, see the globe view (requires WebGL).

§ Visibility from observer

Set your observer location to see the next 7 days of passes ≥ 10°. The values pass through the URL so the page stays shareable.

No JS? Fill the form by hand. The geolocation button needs JavaScript.